Location: Slidell
(30.2789°N, 89.7378°W)
Time: 05:54:42
(UTC-05:00)

Daily predictions for brighter satellites

Satellite Brightness Start Highest point End
(mag) Time Altitude Azimuth Time Altitude Azimuth Time Altitude Azimuth
Cosmos 2369 Rocket 3.6 00:36:41 33° NNE 00:36:41 33° NNE 00:39:44 10° NNE
Mayak 1.6 00:44:00 10° N 00:44:50 15° NNW 00:44:50 15° NNW
Cosmos 2082 Rocket 4.4 00:55:07 10° NW 00:56:41 16° WNW 00:56:41 16° WNW
Cosmos 1943 Rocket 3.6 01:11:43 34° N 01:11:43 34° N 01:14:54 10° NNE
USA 234 4.4 02:01:42 10° NNE 02:07:29 35° NW 02:08:49 32° WNW
Lacrosse 4 Rocket 3.9 02:11:44 20° N 02:11:44 20° N 02:13:23 10° N
ATLAS CENTAUR R/B 4.1 02:24:32 13° NE 02:24:32 13° NE 02:25:07 10° NE
Milstar 3 Cent rocket 4.5 02:26:52 10° WSW 02:51:50 79° S 03:02:45 10° E
NPP 4.0 02:51:59 10° N 02:56:32 59° NNW 02:56:32 59° NNW
Cosmos 540 Rocket 3.9 02:52:55 10° N 02:57:47 57° ENE 02:57:47 57° ENE
CZ-2D R/B 2.2 02:52:49 10° NNE 02:57:40 73° NNE 02:57:40 73° NNE
GPS 2-04 Rocket1 4.4 03:01:20 33° NE 03:01:20 33° NE 03:03:55 10° ENE
Cosmos 1535 Rocket 4.3 02:54:33 10° N 03:00:30 78° WNW 03:00:30 78° WNW
ARIANE 5 R/B 3.0 02:58:26 10° NNE 03:03:07 51° E 03:03:07 51° E
Cosmos 1605 Rocket 4.2 02:57:42 10° N 03:03:45 62° E 03:05:06 50° SE
CBERS-1 4.4 02:59:06 10° N 03:03:20 54° NNW 03:03:20 54° NNW
Cosmos 1339 Rocket 4.4 03:04:35 69° SSE 03:05:16 77° E 03:11:37 10° N
SL-16 R/B 2.4 03:06:35 67° SSE 03:07:29 84° ENE 03:13:39 10° NNW
IRS-P3 4.4 03:02:15 10° N 03:06:55 57° NW 03:06:55 57° NW
Cosmos 1934 Rocket 3.9 03:07:24 10° N 03:13:39 69° W 03:13:48 69° WSW
Cosmos 1697 Rocket 3.7 03:13:35 33° SE 03:14:40 36° ESE 03:19:48 10° NE
ATLAS 2A CENTAUR R/B 3.8 03:08:13 38° WSW 03:14:51 66° S 03:22:56 10° E
MOZ.5/SAFIR/RUBIN 5/SL-8 4.1 03:15:03 58° E 03:15:13 59° ENE 03:19:48 10° N
Resurs 1-4 Rocket 2.3 03:11:10 10° N 03:16:05 60° NW 03:16:05 60° NW
SL-08 R/B 3.6 03:20:49 59° NNW 03:20:49 59° NNW 03:24:40 10° NNW
Cosmos 1812 3.7 03:22:23 10° N 03:25:51 43° ENE 03:25:51 43° ENE
Lacrosse 5 rocket 3.5 03:29:40 19° ESE 03:29:46 19° ESE 03:32:50 10° ENE
SL-8 R/B 4.5 03:27:00 10° NW 03:31:43 52° NE 03:36:23 10° ESE
H-2A R/B 3.9 03:28:48 10° N 03:30:59 26° NNW 03:30:59 26° NNW
Cosmos 1633 3.7 03:34:38 40° N 03:34:38 40° N 03:37:04 10° N
Cosmos 2221 Rocket 4.4 03:32:11 10° NNW 03:35:23 40° NW 03:35:23 40° NW
Genesis I 3.8 03:35:51 10° NNW 03:39:03 54° NNW 03:39:03 54° NNW
Cosmos 2369 3.6 03:39:06 62° SW 03:40:01 78° WNW 03:45:41 10° NNE
Cosmos 1980 Rocket 3.4 03:39:54 23° SSE 03:42:28 35° ESE 03:47:30 10° NE
Cosmos 2219 3.1 03:37:55 10° NNW 03:43:27 59° WSW 03:43:53 57° SW
BREEZE-M DEB (TANK) 4.1 03:41:27 10° NNW 03:44:21 44° NE 03:52:01 10° ESE
Spot 4 Rocket 4.2 03:42:32 10° N 03:47:31 52° WNW 03:48:04 50° W
COSMOS 2455 3.3 03:42:51 10° NW 03:47:54 40° W 03:47:54 40° W
USA 229 DEB 3.7 03:44:14 10° NNW 03:51:31 74° WSW 03:58:57 10° SSE
USA 229 3.7 03:44:21 10° NNW 03:51:38 75° WSW 03:59:03 10° SSE
ADEOS 3.5 03:47:05 10° NNE 03:52:20 82° ESE 03:54:03 44° S
Cosmos 1727 Rocket 4.3 03:52:47 41° WSW 03:54:00 46° W 03:59:59 10° N
Atlas Centaur 2 3.0 03:54:57 20° SE 03:54:57 20° SE 03:57:15 10° ESE
Cosmos 2173 Rocket 4.3 03:51:02 10° N 03:57:04 61° E 04:03:01 10° SSE
ATLAS CENTAUR R/B 3.4 04:00:46 14° NW 04:00:46 14° NW 04:02:49 10° NNW
USA 81 3.9 03:59:08 41° S 04:01:00 82° W 04:06:18 10° N
Cosmos 1733 Rocket 3.7 04:04:00 38° WNW 04:04:00 38° WNW 04:07:57 10° NNW
Cosmos 2297 Rocket 2.3 03:59:43 10° NNW 04:05:23 75° ENE 04:11:00 10° SSE
ASTEX 1 3.7 04:02:12 19° SSE 04:05:42 68° E 04:10:40 10° N
PKM 4.0 04:00:25 10° NW 04:06:05 58° WSW 04:06:29 54° SSW
Cosmos 2278 4.0 04:04:40 39° WSW 04:06:17 50° WNW 04:11:47 10° N
Cosmos 1777 Rocket 3.9 04:09:06 37° SSW 04:11:14 86° WNW 04:16:28 10° NNE
Lacrosse 5 3.9 04:08:47 10° NNW 04:13:12 29° NE 04:17:36 10° ESE
Cosmos 2227 Rocket 2.1 04:08:39 10° NNW 04:14:20 81° WSW 04:19:59 10° SSE
Cosmos 1271 Rocket 2.7 04:13:18 42° S 04:14:35 85° E 04:18:31 10° N
Shenzhou-11 Module 3.6 04:15:44 24° NW 04:16:07 25° NNW 04:18:38 10° NNE
Gbstr 26 Del rocket 3.2 04:17:40 37° W 04:18:31 45° NW 04:22:17 10° NNE
ADEOS II 2.1 04:15:14 10° N 04:20:28 70° WNW 04:23:13 29° SSW
Cosmos 1674 Rocket 3.5 04:17:41 10° NNW 04:21:56 61° W 04:23:46 32° SSW
Meteosat 1 Rocket2 3.3 04:21:25 32° WSW 04:23:43 61° S 04:27:48 10° E
Cosmos 1908 Rocket 3.6 04:22:06 35° SSW 04:23:47 62° W 04:28:11 10° N
NOSS 2-1 (E) 3.3 04:24:18 34° S 04:25:40 63° ESE 04:29:20 10° NE
Cosmos 2016 Rocket 4.2 04:19:55 10° N 04:26:18 76° E 04:32:33 10° S
Aureole 3 4.1 04:22:03 15° S 04:27:05 83° E 04:31:54 10° N
Helios 1A Rocket 4.0 04:31:28 10° NNW 04:34:55 28° WNW 04:35:58 24° W
Okean 1 3.2 04:33:20 10° NNW 04:37:15 63° W 04:40:02 18° S
Cosmos 1340 Rocket 3.8 04:34:21 10° N 04:38:07 45° E 04:41:52 10° SSE
CZ-4B R/B 4.1 04:35:17 10° NNE 04:39:21 44° E 04:43:34 10° S
GPS 2-04 Rocket1 4.0 04:36:03 10° WNW 04:40:00 38° N 04:43:48 10° ENE
Delta 2 Rocket 3.5 04:36:08 10° WNW 04:40:29 88° SSW 04:45:27 10° ESE
Cosmos 1802 Rocket 4.0 04:35:06 10° NNW 04:41:14 65° W 04:47:17 10° S
UNKNOWN OBJECT B 4.5 04:38:54 10° NNW 04:41:49 19° WNW 04:42:47 18° W
ARIANE 5 R/B 4.4 04:39:28 10° NW 04:41:56 14° WNW 04:43:28 12° W
SL-24 R/B - RUBIN 2 3.7 04:37:58 10° NNW 04:42:23 83° ENE 04:47:06 10° SSE
Cosmos 1975 Rocket 3.8 04:39:19 10° N 04:43:44 56° E 04:48:07 10° SSE
Tiangong 2 1.7 04:46:24 25° SSW 04:47:52 46° SE 04:50:58 10° ENE
Cosmos 1536 3.5 04:44:07 10° S 04:48:04 55° E 04:52:04 10° NNE
Cosmos 2082 3.8 04:46:06 10° NNW 04:51:31 50° WSW 04:56:53 10° S
Cosmos 2061 Rocket 4.2 04:46:12 10° NNW 04:52:14 53° W 04:58:19 10° SSW
Cosmos 773 Rocket 4.0 04:48:22 10° NNW 04:53:40 82° WSW 04:58:57 10° SSE
Cosmos 2322 Rocket 3.3 04:48:44 10° S 04:54:00 43° ESE 04:59:17 10° NE
PSLV R/B 3.5 04:55:32 16° W 04:57:24 34° SW 05:00:07 10° SSE
Cosmos 1697 Rocket 4.0 04:55:20 15° WSW 04:58:38 24° WNW 05:03:08 10° N
MOS 1-B 4.4 04:52:52 10° NNE 04:58:40 82° ESE 05:04:26 10° SSW
USA 102 2.6 05:00:14 38° WSW 05:00:23 38° W 05:04:07 10° NNW
Cosmos 1725 Rocket 4.0 04:54:40 10° N 05:00:59 76° W 05:07:12 10° S
BREEZE-M DEB (TANK) 4.0 04:57:52 13° SSW 05:01:25 68° SE 05:16:36 10° NE
Cosmos 2233 Rocket 4.5 04:55:20 10° N 05:01:36 65° E 05:07:45 10° SSE
PSLV R/B 3.9 05:02:56 10° N 05:07:09 48° WNW 05:11:21 10° SSW
Lacrosse 5 rocket 2.3 05:05:21 14° WSW 05:08:41 38° NW 05:12:55 10° NNE
Okean O Rocket 2.4 05:06:53 10° NNE 05:11:14 53° E 05:15:35 10° S
Cosmos 1300 Rocket 4.3 05:12:41 10° S 05:16:56 54° E 05:21:10 10° NNE
SeaSat 1 4.2 05:15:16 10° SE 05:19:48 39° ENE 05:24:21 10° N
Cosmos 2360 Rocket 4.0 05:18:51 10° SSE 05:23:42 31° ESE 05:28:34 10° NE
SL-16 R/B 2.3 05:19:17 10° SSW 05:24:56 88° WNW 05:30:38 10° NNE
Cosmos 1980 Rocket 3.5 05:21:56 10° WSW 05:26:26 24° WNW 05:30:58 10° N
Cosmos 1500 3.3 05:23:01 10° S 05:26:52 85° E 05:30:44 10° N
Okean 2 Rocket 3.8 05:23:02 10° SSW 05:27:04 36° W 05:31:10 10° NNW
GEOS 3 Rocket 3.7 05:23:44 10° NNE 05:29:00 77° NW 05:34:08 10° SW
ATLAS 2A CENTAUR R/B 2.8 05:19:31 10° W 05:30:27 66° S 05:35:17 10° ESE
Milstar 3 Cent rocket 3.5 05:18:19 10° W 05:32:47 73° SSW 05:39:31 10° ESE
